Dati Storici

Data ora Umidita' aria (%) Temperatura aria (°C) Rad globale (W/m²) Gonioanemometro (°) Tacoanemometro (m/s) Pioggia (mm)
01-07-2020 00:50 95.5 % 23.805 -74.195 1.766 0 0
01-07-2020 00:40 95.7 % 24.138 -70.227 1.402 0 0
01-07-2020 00:30 95.3 % 24.101 -70.087 1.429 0 0
01-07-2020 00:20 95 % 24.108 -63.491 0.135 0 0
01-07-2020 00:10 94.4 % 24.187 -62.724 0.474 0 0
01-07-2020 00:00 94.4 % 24.415 -79.481 0.57 0 0
30-06-2020 23:50 94.6 % 24.573 -78.623 0.782 0 0
30-06-2020 23:40 93.9 % 24.378 -71.047 -0.017 0 0
30-06-2020 23:30 92.4 % 24.425 -69.861 -0.018 0 0
30-06-2020 23:20 91.3 % 24.619 -71.005 -0.02 0 0
30-06-2020 23:10 90.5 % 24.801 -70.999 0.1 0 0
30-06-2020 23:00 89.4 % 24.955 -72.508 -0.02 0 0
30-06-2020 22:50 89 % 25.103 -67.443 -0.019 0 0
30-06-2020 22:40 89.1 % 24.982 -73.552 -0.022 0 0
30-06-2020 22:30 88.3 % 24.972 -71.045 -0.021 0 0
30-06-2020 22:20 86.9 % 25.007 -81.421 -0.019 0 0
30-06-2020 22:10 84.8 % 25.045 -78.669 -0.022 0 0
30-06-2020 22:00 84.6 % 25.41 -64.67 -0.022 0 0
30-06-2020 21:50 83.1 % 25.435 -50.039 -0.022 0 0
30-06-2020 21:40 82.3 % 25.615 -56.065 -0.021 0 0

I dati sono presentati in modo automatico a scopo informativo. In seguito a verifica i dati possono subire modifiche o essere invalidati e non riportati negli archivi definitivi.